Time,TemperatureF,DewpointF,PressureIn,WindDirection,WindDirectionDegrees,WindSpeedMPH,WindSpeedGustMPH,Humidity,HourlyPrecipIn,Conditions,Clouds,dailyrainin,SoftwareType,DateUTC
2013-10-09 00:01:00,74.2,73.2,29.90,NNE,24,9.0,15.0,97,-0.03,,,0.00,Weather View 32 v70,2013-10-09 04:01:00,
2013-10-09 00:02:00,74.2,73.2,29.90,North,0,2.0,15.0,97,-0.03,,,0.00,Weather View 32 v70,2013-10-09 04:02:00,
2013-10-09 00:07:00,74.2,73.2,29.90,North,1,2.0,15.0,97,-0.03,,,0.00,Weather View 32 v70,2013-10-09 04:07:00,
2013-10-09 00:12:00,74.1,73.1,29.90,NNE,13,1.0,15.0,97,-0.03,,,0.00,Weather View 32 v70,2013-10-09 04:12:00,
2013-10-09 00:17:00,74.1,73.1,29.90,NNE,20,7.0,15.0,97,-0.03,,,0.00,Weather View 32 v70,2013-10-09 04:17:00,
2013-10-09 00:22:00,74.1,73.1,29.90,North,8,4.0,15.0,97,-0.03,,,0.00,Weather View 32 v70,2013-10-09 04:22:00,
2013-10-09 00:27:00,74.1,73.1,29.90,NE,46,3.0,15.0,97,-0.03,,,0.00,Weather View 32 v70,2013-10-09 04:27:00,
2013-10-09 00:32:00,74.1,73.0,29.90,NNE,32,2.0,15.0,97,-0.03,,,0.00,Weather View 32 v70,2013-10-09 04:32:00,
2013-10-09 00:37:00,74.1,73.0,29.90,North,4,2.0,15.0,97,-0.03,,,0.00,Weather View 32 v70,2013-10-09 04:37:00,
2013-10-09 00:42:00,74.1,73.0,29.90,North,1,2.0,14.0,97,-0.03,,,0.00,Weather View 32 v70,2013-10-09 04:42:00,
2013-10-09 00:47:00,74.0,72.9,29.89,NNE,24,8.0,16.0,97,-0.03,,,0.00,Weather View 32 v70,2013-10-09 04:47:00,
2013-10-09 00:52:00,74.1,73.0,29.90,North,8,0.0,16.0,96,-0.03,,,0.00,Weather View 32 v70,2013-10-09 04:52:00,
2013-10-09 00:57:00,74.1,73.0,29.90,NNE,31,3.0,16.0,96,-0.03,,,0.00,Weather View 32 v70,2013-10-09 04:57:00,
2013-10-09 01:02:00,74.0,72.9,29.90,NE,55,2.0,16.0,96,0.00,,,0.00,Weather View 32 v70,2013-10-09 05:02:00,
2013-10-09 01:07:00,74.0,72.9,29.90,NNE,14,2.0,16.0,96,0.00,,,0.00,Weather View 32 v70,2013-10-09 05:07:00,
2013-10-09 01:12:00,74.1,73.0,29.90,NNE,23,2.0,16.0,96,0.00,,,0.00,Weather View 32 v70,2013-10-09 05:12:00,
2013-10-09 01:17:00,74.1,73.0,29.90,North,1,0.0,16.0,96,0.00,,,0.00,Weather View 32 v70,2013-10-09 05:17:00,
2013-10-09 01:22:00,74.0,72.9,29.90,NNE,14,1.0,16.0,96,0.00,,,0.00,Weather View 32 v70,2013-10-09 05:22:00,
2013-10-09 01:27:00,73.9,72.8,29.90,NE,37,4.0,16.0,96,0.00,,,0.00,Weather View 32 v70,2013-10-09 05:27:00,
2013-10-09 01:32:00,73.9,72.8,29.90,NNE,28,2.0,16.0,97,0.00,,,0.00,Weather View 32 v70,2013-10-09 05:32:00,
2013-10-09 01:37:00,73.8,72.7,29.90,North,10,3.0,16.0,97,0.00,,,0.00,Weather View 32 v70,2013-10-09 05:37:00,
2013-10-09 01:42:00,73.9,72.8,29.90,NE,39,2.0,16.0,97,0.00,,,0.00,Weather View 32 v70,2013-10-09 05:42:00,
2013-10-09 01:47:00,73.9,72.8,29.90,NNE,20,5.0,12.0,97,0.00,,,0.00,Weather View 32 v70,2013-10-09 05:47:00,
2013-10-09 01:52:00,73.9,72.8,29.90,NNE,21,0.0,12.0,97,0.00,,,0.00,Weather View 32 v70,2013-10-09 05:52:00,
2013-10-09 01:57:00,74.0,72.9,29.90,North,10,1.0,12.0,97,0.00,,,0.00,Weather View 32 v70,2013-10-09 05:57:00,
2013-10-09 02:02:00,73.9,72.8,29.90,NW,316,1.0,12.0,97,0.00,,,0.00,Weather View 32 v70,2013-10-09 06:02:00,
2013-10-09 02:07:00,73.9,72.8,29.90,NNE,20,2.0,12.0,96,0.00,,,0.00,Weather View 32 v70,2013-10-09 06:07:00,
2013-10-09 02:12:00,74.0,72.9,29.90,NNE,32,3.0,12.0,97,0.00,,,0.00,Weather View 32 v70,2013-10-09 06:12:00,
2013-10-09 02:17:00,74.0,72.9,29.90,NE,41,3.0,12.0,96,0.00,,,0.00,Weather View 32 v70,2013-10-09 06:17:00,
2013-10-09 02:22:00,74.0,72.9,29.90,NNE,32,3.0,12.0,96,0.00,,,0.00,Weather View 32 v70,2013-10-09 06:22:00,
2013-10-09 02:27:00,74.0,72.9,29.90,North,7,0.0,12.0,96,0.00,,,0.00,Weather View 32 v70,2013-10-09 06:27:00,
2013-10-09 02:32:00,74.0,72.9,29.90,NNE,24,0.0,12.0,96,0.00,,,0.00,Weather View 32 v70,2013-10-09 06:32:00,
2013-10-09 02:37:00,74.0,72.8,29.90,ESE,110,0.0,12.0,96,0.00,,,0.00,Weather View 32 v70,2013-10-09 06:37:00,
2013-10-09 02:42:00,74.0,72.8,29.90,NNE,20,1.0,12.0,96,0.00,,,0.00,Weather View 32 v70,2013-10-09 06:42:00,
2013-10-09 02:47:00,74.0,72.8,29.90,North,359,3.0,12.0,96,0.00,,,0.00,Weather View 32 v70,2013-10-09 06:47:00,
2013-10-09 02:52:00,74.0,72.8,29.90,NNE,32,1.0,12.0,96,0.00,,,0.00,Weather View 32 v70,2013-10-09 06:52:00,
2013-10-09 02:57:00,73.9,72.7,29.90,NNW,345,0.0,12.0,96,0.00,,,0.00,Weather View 32 v70,2013-10-09 06:57:00,
2013-10-09 03:02:00,74.0,72.8,29.90,NNW,332,1.0,12.0,96,0.00,,,0.00,Weather View 32 v70,2013-10-09 07:02:00,
2013-10-09 03:07:00,74.0,72.8,29.90,North,11,2.0,12.0,96,0.00,,,0.00,Weather View 32 v70,2013-10-09 07:07:00,
2013-10-09 03:12:00,73.9,72.7,29.90,NNW,332,3.0,12.0,96,0.00,,,0.00,Weather View 32 v70,2013-10-09 07:12:00,
2013-10-09 03:17:00,73.9,72.7,29.90,North,357,2.0,12.0,96,0.00,,,0.00,Weather View 32 v70,2013-10-09 07:17:00,
2013-10-09 03:22:00,73.9,72.7,29.90,NW,322,1.0,12.0,96,0.00,,,0.00,Weather View 32 v70,2013-10-09 07:22:00,
2013-10-09 03:27:00,73.9,72.7,29.90,NNE,24,3.0,12.0,96,0.00,,,0.00,Weather View 32 v70,2013-10-09 07:27:00,
2013-10-09 03:32:00,73.9,72.7,29.90,NNE,31,2.0,12.0,96,0.00,,,0.00,Weather View 32 v70,2013-10-09 07:32:00,
2013-10-09 03:37:00,73.9,72.7,29.90,NNE,30,1.0,12.0,96,0.00,,,0.00,Weather View 32 v70,2013-10-09 07:37:00,
2013-10-09 03:43:00,73.8,72.6,29.90,NNE,32,2.0,12.0,96,0.00,,,0.00,Weather View 32 v70,2013-10-09 07:43:00,
2013-10-09 03:48:00,73.7,72.5,29.90,NNW,345,0.0,9.0,96,0.00,,,0.00,Weather View 32 v70,2013-10-09 07:48:00,
2013-10-09 03:53:00,73.8,72.6,29.90,North,359,3.0,9.0,96,0.00,,,0.00,Weather View 32 v70,2013-10-09 07:53:00,
2013-10-09 03:58:00,73.8,72.6,29.90,NE,35,1.0,9.0,96,0.00,,,0.00,Weather View 32 v70,2013-10-09 07:58:00,
2013-10-09 04:03:00,73.8,72.6,29.90,North,359,3.0,9.0,96,0.00,,,0.00,Weather View 32 v70,2013-10-09 08:03:00,
2013-10-09 04:08:00,73.7,72.5,29.90,North,8,7.0,9.0,96,0.00,,,0.00,Weather View 32 v70,2013-10-09 08:08:00,
2013-10-09 04:13:00,73.7,72.4,29.90,East,90,0.0,9.0,96,0.00,,,0.00,Weather View 32 v70,2013-10-09 08:13:00,
2013-10-09 04:18:00,73.7,72.4,29.90,NNE,21,0.0,9.0,96,0.00,,,0.00,Weather View 32 v70,2013-10-09 08:18:00,
2013-10-09 04:23:00,73.7,72.5,29.90,NNW,328,1.0,9.0,96,0.00,,,0.00,Weather View 32 v70,2013-10-09 08:23:00,
2013-10-09 04:28:00,73.7,72.5,29.90,ENE,60,1.0,9.0,96,0.00,,,0.00,Weather View 32 v70,2013-10-09 08:28:00,
2013-10-09 04:33:00,73.6,72.4,29.90,NNE,14,2.0,9.0,96,0.00,,,0.00,Weather View 32 v70,2013-10-09 08:33:00,
2013-10-09 04:38:00,73.6,72.4,29.90,ENE,62,0.0,9.0,96,0.00,,,0.00,Weather View 32 v70,2013-10-09 08:38:00,
2013-10-09 04:43:00,73.6,72.4,29.90,NW,322,1.0,9.0,96,0.00,,,0.00,Weather View 32 v70,2013-10-09 08:43:00,
2013-10-09 04:48:00,73.6,72.4,29.90,North,353,2.0,10.0,96,0.00,,,0.00,Weather View 32 v70,2013-10-09 08:48:00,
2013-10-09 04:53:00,73.6,72.4,29.90,East,84,5.0,10.0,96,0.00,,,0.00,Weather View 32 v70,2013-10-09 08:53:00,
2013-10-09 04:58:00,73.6,72.4,29.90,NE,44,4.0,11.0,96,0.00,,,0.00,Weather View 32 v70,2013-10-09 08:58:00,
2013-10-09 05:03:00,73.7,72.5,29.90,North,359,3.0,11.0,96,0.00,,,0.00,Weather View 32 v70,2013-10-09 09:03:00,
2013-10-09 05:08:00,73.5,72.3,29.91,North,354,2.0,11.0,96,0.00,,,0.00,Weather View 32 v70,2013-10-09 09:08:00,
2013-10-09 05:13:00,73.6,72.3,29.91,NE,34,5.0,11.0,96,0.00,,,0.00,Weather View 32 v70,2013-10-09 09:13:00,
2013-10-09 05:18:00,73.6,72.3,29.91,NW,325,3.0,11.0,96,0.00,,,0.00,Weather View 32 v70,2013-10-09 09:18:00,
2013-10-09 05:23:00,73.6,72.3,29.91,North,350,1.0,12.0,96,0.00,,,0.00,Weather View 32 v70,2013-10-09 09:23:00,
2013-10-09 05:28:00,73.6,72.3,29.91,North,7,5.0,12.0,96,0.00,,,0.00,Weather View 32 v70,2013-10-09 09:28:00,
2013-10-09 05:33:00,73.6,72.3,29.91,NNE,18,3.0,12.0,96,0.00,,,0.00,Weather View 32 v70,2013-10-09 09:33:00,
2013-10-09 05:38:00,73.6,72.3,29.91,NNE,15,2.0,12.0,96,0.00,,,0.00,Weather View 32 v70,2013-10-09 09:38:00,
2013-10-09 05:43:00,73.5,72.2,29.91,NNE,14,5.0,12.0,96,0.00,,,0.00,Weather View 32 v70,2013-10-09 09:43:00,
2013-10-09 05:48:00,73.5,72.1,29.92,NNE,18,8.0,12.0,96,0.00,,,0.00,Weather View 32 v70,2013-10-09 09:48:00,
2013-10-09 05:53:00,73.5,72.1,29.92,North,353,3.0,12.0,96,0.00,,,0.00,Weather View 32 v70,2013-10-09 09:53:00,
2013-10-09 05:58:00,73.5,72.1,29.92,North,359,3.0,12.0,95,0.00,,,0.00,Weather View 32 v70,2013-10-09 09:58:00,
2013-10-09 06:03:00,73.4,72.0,29.93,North,11,2.0,12.0,95,0.00,,,0.00,Weather View 32 v70,2013-10-09 10:03:00,
2013-10-09 06:08:00,73.5,72.1,29.93,North,357,3.0,12.0,95,0.00,,,0.00,Weather View 32 v70,2013-10-09 10:08:00,
2013-10-09 06:13:00,73.3,71.8,29.93,NNW,346,3.0,12.0,95,0.00,,,0.00,Weather View 32 v70,2013-10-09 10:13:00,
2013-10-09 06:18:00,73.3,71.8,29.93,South,181,1.0,12.0,95,0.00,,,0.00,Weather View 32 v70,2013-10-09 10:18:00,
2013-10-09 06:23:00,73.2,71.7,29.93,NNE,15,4.0,10.0,95,0.00,,,0.00,Weather View 32 v70,2013-10-09 10:23:00,
2013-10-09 06:28:00,73.3,71.8,29.93,NNE,14,1.0,10.0,95,0.00,,,0.00,Weather View 32 v70,2013-10-09 10:28:00,
2013-10-09 06:33:00,73.4,71.9,29.93,North,0,5.0,10.0,95,0.00,,,0.00,Weather View 32 v70,2013-10-09 10:33:00,
2013-10-09 06:38:00,73.3,71.8,29.93,NNW,329,4.0,10.0,95,0.00,,,0.00,Weather View 32 v70,2013-10-09 10:38:00,
2013-10-09 06:43:00,73.3,71.8,29.93,NNE,27,4.0,10.0,95,0.00,,,0.00,Weather View 32 v70,2013-10-09 10:43:00,
2013-10-09 06:48:00,73.2,71.7,29.94,NE,41,4.0,10.0,95,0.00,,,0.00,Weather View 32 v70,2013-10-09 10:48:00,
2013-10-09 06:53:00,73.2,71.5,29.94,NNE,18,2.0,10.0,95,0.00,,,0.00,Weather View 32 v70,2013-10-09 10:53:00,
2013-10-09 06:58:00,73.3,71.5,29.93,NE,48,3.0,10.0,94,0.00,,,0.00,Weather View 32 v70,2013-10-09 10:58:00,
2013-10-09 07:03:00,73.3,71.6,29.93,South,191,1.0,10.0,94,0.00,,,0.00,Weather View 32 v70,2013-10-09 11:03:00,
2013-10-09 07:08:00,73.2,71.4,29.94,NE,51,0.0,10.0,94,0.00,,,0.00,Weather View 32 v70,2013-10-09 11:08:00,
2013-10-09 07:13:00,72.9,71.1,29.94,NW,314,4.0,10.0,94,0.00,,,0.00,Weather View 32 v70,2013-10-09 11:13:00,
2013-10-09 07:18:00,72.6,71.0,29.95,North,353,0.0,10.0,95,0.00,,,0.00,Weather View 32 v70,2013-10-09 11:18:00,
2013-10-09 07:23:00,72.3,70.7,29.95,North,7,0.0,10.0,95,0.00,,,0.00,Weather View 32 v70,2013-10-09 11:23:00,
2013-10-09 07:28:00,72.1,70.6,29.95,NW,321,0.0,10.0,95,0.00,,,0.00,Weather View 32 v70,2013-10-09 11:28:00,
2013-10-09 07:33:00,72.0,70.5,29.95,NE,35,0.0,10.0,95,0.00,,,0.00,Weather View 32 v70,2013-10-09 11:33:00,
2013-10-09 07:38:00,71.6,70.2,29.95,WSW,253,0.0,10.0,95,0.00,,,0.00,Weather View 32 v70,2013-10-09 11:38:00,
2013-10-09 07:43:00,71.5,70.1,29.95,WNW,298,4.0,10.0,96,0.00,,,0.00,Weather View 32 v70,2013-10-09 11:43:00,
2013-10-09 07:48:00,71.5,70.2,29.95,NW,325,6.0,10.0,96,0.00,,,0.00,Weather View 32 v70,2013-10-09 11:48:00,
2013-10-09 07:53:00,71.5,70.2,29.95,WNW,291,0.0,10.0,96,0.00,,,0.00,Weather View 32 v70,2013-10-09 11:53:00,
2013-10-09 07:58:00,71.3,70.1,29.95,NNW,343,0.0,9.0,96,0.00,,,0.00,Weather View 32 v70,2013-10-09 11:58:00,
2013-10-09 08:03:00,71.4,70.2,29.95,NW,315,1.0,9.0,96,0.00,,,0.00,Weather View 32 v70,2013-10-09 12:03:00,
2013-10-09 08:08:00,71.2,70.0,29.95,NW,304,0.0,9.0,96,0.00,,,0.00,Weather View 32 v70,2013-10-09 12:08:00,
2013-10-09 08:13:00,71.3,70.1,29.95,North,10,1.0,9.0,96,0.00,,,0.00,Weather View 32 v70,2013-10-09 12:13:00,
2013-10-09 08:18:00,71.2,70.0,29.95,NNE,31,2.0,7.0,96,0.00,,,0.00,Weather View 32 v70,2013-10-09 12:18:00,
2013-10-09 08:23:00,71.0,69.8,29.96,North,8,2.0,7.0,96,0.00,,,0.00,Weather View 32 v70,2013-10-09 12:23:00,
2013-10-09 08:28:00,71.0,69.8,29.96,North,3,0.0,7.0,96,0.00,,,0.00,Weather View 32 v70,2013-10-09 12:28:00,
2013-10-09 08:33:00,70.9,69.7,29.96,North,11,0.0,7.0,96,0.00,,,0.00,Weather View 32 v70,2013-10-09 12:33:00,
2013-10-09 08:38:00,71.0,69.9,29.96,North,7,0.0,7.0,96,0.00,,,0.00,Weather View 32 v70,2013-10-09 12:38:00,
2013-10-09 08:43:00,70.9,69.8,29.96,North,350,0.0,7.0,96,0.00,,,0.00,Weather View 32 v70,2013-10-09 12:43:00,
2013-10-09 08:48:00,71.1,70.0,29.97,North,11,3.0,7.0,96,0.00,,,0.00,Weather View 32 v70,2013-10-09 12:48:00,
2013-10-09 08:53:00,71.1,70.0,29.97,NW,312,0.0,7.0,96,0.00,,,0.00,Weather View 32 v70,2013-10-09 12:53:00,
2013-10-09 08:58:00,71.0,69.9,29.97,NE,37,0.0,7.0,96,0.00,,,0.00,Weather View 32 v70,2013-10-09 12:58:00,
2013-10-09 09:03:00,70.8,69.6,29.97,West,276,0.0,7.0,96,0.00,,,0.00,Weather View 32 v70,2013-10-09 13:03:00,
2013-10-09 09:08:00,71.1,70.0,29.98,West,276,0.0,7.0,96,0.00,,,0.00,Weather View 32 v70,2013-10-09 13:08:00,
2013-10-09 09:13:00,71.1,70.0,29.98,NNW,338,2.0,9.0,96,0.01,,,0.01,Weather View 32 v70,2013-10-09 13:13:00,
2013-10-09 09:18:00,71.2,70.0,29.98,NNW,340,0.0,9.0,96,0.01,,,0.01,Weather View 32 v70,2013-10-09 13:18:00,
2013-10-09 09:23:00,71.3,70.1,29.98,SSW,208,0.0,9.0,96,0.01,,,0.01,Weather View 32 v70,2013-10-09 13:23:00,
2013-10-09 09:28:00,71.3,70.0,29.98,NE,44,2.0,9.0,96,0.01,,,0.01,Weather View 32 v70,2013-10-09 13:28:00,
2013-10-09 09:33:00,71.4,70.1,29.99,North,3,3.0,9.0,96,0.01,,,0.01,Weather View 32 v70,2013-10-09 13:33:00,
2013-10-09 09:38:00,71.4,70.0,29.99,NNW,340,1.0,9.0,96,0.01,,,0.01,Weather View 32 v70,2013-10-09 13:38:00,
2013-10-09 09:43:00,71.5,70.1,29.99,WNW,285,2.0,9.0,96,0.01,,,0.01,Weather View 32 v70,2013-10-09 13:43:00,
2013-10-09 09:48:00,71.3,69.9,30.00,NW,318,1.0,9.0,95,0.01,,,0.01,Weather View 32 v70,2013-10-09 13:48:00,
2013-10-09 09:53:00,71.5,70.1,30.00,NW,325,0.0,9.0,96,0.01,,,0.01,Weather View 32 v70,2013-10-09 13:53:00,
2013-10-09 09:58:00,71.5,70.1,30.00,North,1,0.0,9.0,96,0.01,,,0.01,Weather View 32 v70,2013-10-09 13:58:00,
2013-10-09 10:03:00,71.6,70.2,30.00,North,6,0.0,9.0,96,0.01,,,0.01,Weather View 32 v70,2013-10-09 14:03:00,
2013-10-09 10:08:00,71.5,70.1,30.00,SE,135,2.0,9.0,95,0.01,,,0.01,Weather View 32 v70,2013-10-09 14:08:00,
2013-10-09 10:13:00,71.5,70.1,30.00,West,263,1.0,7.0,95,0.00,,,0.01,Weather View 32 v70,2013-10-09 14:13:00,
2013-10-09 10:18:00,71.8,70.3,30.00,NNE,31,2.0,7.0,95,0.00,,,0.01,Weather View 32 v70,2013-10-09 14:18:00,
2013-10-09 10:23:00,71.9,70.4,30.00,NNE,13,0.0,8.0,95,0.00,,,0.01,Weather View 32 v70,2013-10-09 14:23:00,
2013-10-09 10:28:00,71.9,70.4,30.00,NW,322,0.0,8.0,95,0.00,,,0.01,Weather View 32 v70,2013-10-09 14:28:00,
2013-10-09 10:33:00,71.8,70.2,30.00,North,356,2.0,8.0,95,0.00,,,0.01,Weather View 32 v70,2013-10-09 14:33:00,
2013-10-09 10:38:00,72.1,70.5,30.00,NW,323,0.0,8.0,95,0.00,,,0.01,Weather View 32 v70,2013-10-09 14:38:00,
2013-10-09 10:43:00,72.3,70.7,30.00,NNE,23,1.0,8.0,95,0.00,,,0.01,Weather View 32 v70,2013-10-09 14:43:00,
2013-10-09 10:48:00,72.4,70.9,30.00,NNE,18,0.0,8.0,95,0.00,,,0.01,Weather View 32 v70,2013-10-09 14:48:00,
2013-10-09 10:53:00,72.3,70.7,30.00,North,352,0.0,8.0,95,0.00,,,0.01,Weather View 32 v70,2013-10-09 14:53:00,
2013-10-09 10:58:00,72.2,70.6,30.00,WNW,285,3.0,8.0,95,0.00,,,0.01,Weather View 32 v70,2013-10-09 14:58:00,
2013-10-09 11:03:00,72.5,70.6,30.01,NW,321,0.0,8.0,94,0.00,,,0.01,Weather View 32 v70,2013-10-09 15:03:00,
2013-10-09 11:08:00,72.6,70.7,30.01,WNW,291,1.0,8.0,94,0.00,,,0.01,Weather View 32 v70,2013-10-09 15:08:00,
2013-10-09 11:13:00,72.7,70.7,30.01,NNW,339,0.0,8.0,94,0.00,,,0.01,Weather View 32 v70,2013-10-09 15:13:00,
2013-10-09 11:18:00,72.9,71.0,30.01,North,7,2.0,8.0,94,0.00,,,0.01,Weather View 32 v70,2013-10-09 15:18:00,
2013-10-09 11:23:00,72.8,70.8,30.01,NW,326,3.0,8.0,93,0.00,,,0.01,Weather View 32 v70,2013-10-09 15:23:00,
2013-10-09 11:28:00,73.1,71.1,30.00,NNE,13,2.0,7.0,94,0.00,,,0.01,Weather View 32 v70,2013-10-09 15:28:00,
2013-10-09 11:33:00,73.3,71.0,30.00,NNE,28,0.0,9.0,93,0.00,,,0.01,Weather View 32 v70,2013-10-09 15:33:00,
2013-10-09 11:38:00,73.4,71.1,30.01,NNW,332,3.0,9.0,93,0.00,,,0.01,Weather View 32 v70,2013-10-09 15:38:00,
2013-10-09 11:43:00,73.6,71.1,30.00,ENE,60,1.0,9.0,92,0.00,,,0.01,Weather View 32 v70,2013-10-09 15:43:00,
2013-10-09 11:48:00,73.7,71.2,30.00,West,263,6.0,9.0,92,0.00,,,0.01,Weather View 32 v70,2013-10-09 15:48:00,
2013-10-09 11:53:00,73.7,71.0,30.00,North,1,0.0,10.0,91,0.00,,,0.01,Weather View 32 v70,2013-10-09 15:53:00,
2013-10-09 11:58:00,73.9,71.0,30.00,NW,305,0.0,10.0,91,0.00,,,0.01,Weather View 32 v70,2013-10-09 15:58:00,
2013-10-09 12:03:00,73.9,71.0,30.00,NE,35,1.0,10.0,91,0.00,,,0.01,Weather View 32 v70,2013-10-09 16:03:00,
2013-10-09 12:08:00,74.1,71.1,30.00,NE,35,2.0,10.0,90,0.00,,,0.01,Weather View 32 v70,2013-10-09 16:08:00,
2013-10-09 12:13:00,74.2,71.0,30.00,NE,55,2.0,10.0,90,0.00,,,0.01,Weather View 32 v70,2013-10-09 16:13:00,
2013-10-09 12:18:00,74.3,71.1,30.00,WNW,283,0.0,11.0,90,0.00,,,0.01,Weather View 32 v70,2013-10-09 16:18:00,
2013-10-09 12:20:00,74.3,71.1,30.00,WSW,255,0.0,11.0,90,0.00,,,0.01,Weather View 32 v70,2013-10-09 16:20:00,
2013-10-09 12:23:00,74.3,71.1,30.00,NW,311,2.0,11.0,90,0.00,,,0.01,Weather View 32 v70,2013-10-09 16:23:00,
2013-10-09 12:28:00,74.4,71.0,30.00,WNW,293,0.0,11.0,89,0.00,,,0.01,Weather View 32 v70,2013-10-09 16:28:00,
2013-10-09 12:33:00,74.4,70.9,30.00,NE,44,0.0,11.0,89,0.00,,,0.01,Weather View 32 v70,2013-10-09 16:33:00,
2013-10-09 12:38:00,74.5,71.0,30.00,NNW,342,4.0,11.0,89,0.00,,,0.01,Weather View 32 v70,2013-10-09 16:38:00,
2013-10-09 12:43:00,74.5,71.0,30.00,North,3,2.0,11.0,89,0.00,,,0.01,Weather View 32 v70,2013-10-09 16:43:00,
2013-10-09 12:48:00,74.5,71.0,30.00,WNW,283,2.0,11.0,89,0.00,,,0.01,Weather View 32 v70,2013-10-09 16:48:00,
2013-10-09 12:53:00,74.3,70.6,29.99,NE,37,2.0,11.0,88,0.00,,,0.01,Weather View 32 v70,2013-10-09 16:53:00,
2013-10-09 12:58:00,74.4,70.7,29.99,SSW,195,1.0,11.0,88,0.00,,,0.01,Weather View 32 v70,2013-10-09 16:58:00,
2013-10-09 13:03:00,74.3,70.4,29.99,WNW,302,1.0,11.0,88,0.00,,,0.01,Weather View 32 v70,2013-10-09 17:03:00,
2013-10-09 13:08:00,74.2,70.2,29.99,North,354,2.0,11.0,88,0.00,,,0.01,Weather View 32 v70,2013-10-09 17:08:00,
2013-10-09 13:13:00,74.1,70.0,29.99,NNE,15,4.0,11.0,87,0.00,,,0.01,Weather View 32 v70,2013-10-09 17:13:00,
2013-10-09 13:18:00,74.0,70.1,29.99,SSW,197,0.0,10.0,88,0.00,,,0.01,Weather View 32 v70,2013-10-09 17:18:00,
2013-10-09 13:23:00,73.9,70.0,29.99,NE,37,3.0,10.0,88,0.00,,,0.01,Weather View 32 v70,2013-10-09 17:23:00,
2013-10-09 13:28:00,74.0,70.4,29.99,ENE,69,0.0,10.0,89,0.00,,,0.01,Weather View 32 v70,2013-10-09 17:28:00,
2013-10-09 13:34:00,74.0,70.2,29.99,NNE,32,0.0,10.0,88,0.00,,,0.01,Weather View 32 v70,2013-10-09 17:34:00,
2013-10-09 13:39:00,74.0,70.0,29.99,NE,34,1.0,10.0,87,0.00,,,0.01,Weather View 32 v70,2013-10-09 17:39:00,
2013-10-09 13:44:00,73.8,69.8,29.99,WNW,300,2.0,10.0,87,0.00,,,0.01,Weather View 32 v70,2013-10-09 17:44:00,
2013-10-09 13:49:00,73.6,69.6,29.98,WNW,294,6.0,10.0,87,0.00,,,0.01,Weather View 32 v70,2013-10-09 17:49:00,
2013-10-09 13:54:00,73.4,69.6,29.98,West,271,3.0,10.0,88,0.00,,,0.01,Weather View 32 v70,2013-10-09 17:54:00,
2013-10-09 13:59:00,73.5,69.8,29.98,WSW,246,0.0,10.0,88,0.00,,,0.01,Weather View 32 v70,2013-10-09 17:59:00,
2013-10-09 14:04:00,73.3,69.6,29.98,NNE,18,2.0,10.0,88,0.00,,,0.01,Weather View 32 v70,2013-10-09 18:04:00,
2013-10-09 14:09:00,73.1,69.5,29.98,NNW,340,1.0,10.0,88,0.00,,,0.01,Weather View 32 v70,2013-10-09 18:09:00,
2013-10-09 14:14:00,73.2,69.8,29.98,North,8,3.0,10.0,89,0.00,,,0.01,Weather View 32 v70,2013-10-09 18:14:00,
2013-10-09 14:19:00,73.1,69.6,29.98,NNE,27,5.0,12.0,89,0.00,,,0.01,Weather View 32 v70,2013-10-09 18:19:00,
2013-10-09 14:24:00,73.1,69.6,29.98,NE,48,1.0,12.0,89,0.00,,,0.01,Weather View 32 v70,2013-10-09 18:24:00,
2013-10-09 14:29:00,73.0,69.6,29.98,East,83,2.0,12.0,89,0.00,,,0.01,Weather View 32 v70,2013-10-09 18:29:00,
2013-10-09 14:34:00,73.3,69.8,29.97,NNE,23,2.0,12.0,89,0.00,,,0.01,Weather View 32 v70,2013-10-09 18:34:00,
2013-10-09 14:39:00,73.4,69.8,29.97,West,277,2.0,12.0,89,0.00,,,0.01,Weather View 32 v70,2013-10-09 18:39:00,
2013-10-09 14:44:00,73.5,69.9,29.98,NNE,14,1.0,12.0,89,0.00,,,0.01,Weather View 32 v70,2013-10-09 18:44:00,
2013-10-09 14:49:00,73.3,69.6,29.98,NNE,28,1.0,12.0,88,0.00,,,0.01,Weather View 32 v70,2013-10-09 18:49:00,
2013-10-09 14:54:00,73.1,69.4,29.97,North,8,1.0,12.0,88,0.00,,,0.01,Weather View 32 v70,2013-10-09 18:54:00,
2013-10-09 14:59:00,73.2,69.4,29.97,North,0,4.0,12.0,88,0.00,,,0.01,Weather View 32 v70,2013-10-09 18:59:00,
2013-10-09 15:04:00,73.1,69.5,29.98,WNW,293,0.0,12.0,88,0.00,,,0.01,Weather View 32 v70,2013-10-09 19:04:00,
2013-10-09 15:09:00,72.8,69.2,29.97,NE,48,4.0,12.0,88,0.00,,,0.01,Weather View 32 v70,2013-10-09 19:09:00,
2013-10-09 15:14:00,72.9,69.1,29.97,NNE,21,0.0,12.0,88,0.00,,,0.01,Weather View 32 v70,2013-10-09 19:14:00,
2013-10-09 15:19:00,72.8,69.2,29.98,WSW,240,1.0,11.0,89,0.00,,,0.01,Weather View 32 v70,2013-10-09 19:19:00,
2013-10-09 15:24:00,72.8,69.2,29.98,SW,236,0.0,9.0,89,0.00,,,0.01,Weather View 32 v70,2013-10-09 19:24:00,
2013-10-09 15:29:00,72.8,69.5,29.98,WNW,302,0.0,9.0,90,0.00,,,0.01,Weather View 32 v70,2013-10-09 19:29:00,
2013-10-09 15:34:00,72.9,69.3,29.98,North,354,1.0,9.0,89,0.00,,,0.01,Weather View 32 v70,2013-10-09 19:34:00,
2013-10-09 15:39:00,72.8,69.1,29.97,NW,325,1.0,9.0,88,0.00,,,0.01,Weather View 32 v70,2013-10-09 19:39:00,
2013-10-09 15:44:00,72.8,69.2,29.98,NE,53,0.0,9.0,88,0.00,,,0.01,Weather View 32 v70,2013-10-09 19:44:00,
2013-10-09 15:49:00,72.8,69.1,29.98,West,263,0.0,9.0,88,0.00,,,0.01,Weather View 32 v70,2013-10-09 19:49:00,
2013-10-09 15:54:00,72.9,69.1,29.98,NNE,17,2.0,8.0,88,0.00,,,0.01,Weather View 32 v70,2013-10-09 19:54:00,
2013-10-09 15:59:00,72.9,69.2,29.98,NE,48,0.0,8.0,88,0.00,,,0.01,Weather View 32 v70,2013-10-09 19:59:00,
2013-10-09 16:04:00,72.9,69.2,29.98,NNE,13,1.0,8.0,88,0.00,,,0.01,Weather View 32 v70,2013-10-09 20:04:00,
2013-10-09 16:09:00,73.0,69.5,29.98,NNE,21,2.0,8.0,89,0.00,,,0.01,Weather View 32 v70,2013-10-09 20:09:00,
2013-10-09 16:14:00,73.0,69.4,29.98,North,4,2.0,8.0,88,0.00,,,0.01,Weather View 32 v70,2013-10-09 20:14:00,
2013-10-09 16:19:00,73.0,69.3,29.97,North,359,4.0,8.0,88,0.00,,,0.01,Weather View 32 v70,2013-10-09 20:19:00,
2013-10-09 16:24:00,72.9,69.0,29.98,NNW,335,0.0,8.0,88,0.00,,,0.01,Weather View 32 v70,2013-10-09 20:24:00,
2013-10-09 16:29:00,72.8,68.8,29.98,NNE,17,4.0,8.0,87,0.00,,,0.01,Weather View 32 v70,2013-10-09 20:29:00,
2013-10-09 16:34:00,72.8,68.9,29.98,NNE,13,1.0,7.0,88,0.00,,,0.01,Weather View 32 v70,2013-10-09 20:34:00,
2013-10-09 16:39:00,72.7,69.0,29.98,NW,326,2.0,7.0,88,0.00,,,0.01,Weather View 32 v70,2013-10-09 20:39:00,
2013-10-09 16:44:00,72.8,69.1,29.98,North,10,0.0,8.0,88,0.00,,,0.01,Weather View 32 v70,2013-10-09 20:44:00,
2013-10-09 16:49:00,72.7,68.8,29.98,West,267,3.0,8.0,88,0.00,,,0.01,Weather View 32 v70,2013-10-09 20:49:00,
2013-10-09 16:54:00,72.6,68.8,29.98,North,0,1.0,8.0,88,0.00,,,0.01,Weather View 32 v70,2013-10-09 20:54:00,
2013-10-09 16:59:00,72.5,68.9,29.98,North,359,0.0,8.0,88,0.00,,,0.01,Weather View 32 v70,2013-10-09 20:59:00,
2013-10-09 17:04:00,72.5,68.9,29.98,SW,221,1.0,8.0,89,0.00,,,0.01,Weather View 32 v70,2013-10-09 21:04:00,
2013-10-09 17:09:00,72.2,68.6,29.98,NNE,20,1.0,8.0,89,0.00,,,0.01,Weather View 32 v70,2013-10-09 21:09:00,
2013-10-09 17:14:00,72.3,68.6,29.98,West,276,0.0,8.0,88,0.00,,,0.01,Weather View 32 v70,2013-10-09 21:14:00,
2013-10-09 17:19:00,72.1,68.6,29.98,NE,49,0.0,8.0,89,0.00,,,0.01,Weather View 32 v70,2013-10-09 21:19:00,
2013-10-09 17:24:00,72.1,68.7,29.98,NNE,25,5.0,8.0,89,0.00,,,0.01,Weather View 32 v70,2013-10-09 21:24:00,
2013-10-09 17:29:00,71.9,68.4,29.98,NE,37,2.0,8.0,89,0.00,,,0.01,Weather View 32 v70,2013-10-09 21:29:00,
2013-10-09 17:34:00,71.8,68.5,29.98,NW,305,0.0,8.0,89,0.00,,,0.01,Weather View 32 v70,2013-10-09 21:34:00,
2013-10-09 17:39:00,71.7,68.4,29.98,North,356,1.0,8.0,89,0.00,,,0.01,Weather View 32 v70,2013-10-09 21:39:00,
2013-10-09 17:44:00,71.6,68.3,29.98,North,7,3.0,7.0,90,0.00,,,0.01,Weather View 32 v70,2013-10-09 21:44:00,
2013-10-09 17:49:00,71.4,68.1,29.98,NNE,32,0.0,7.0,89,0.00,,,0.01,Weather View 32 v70,2013-10-09 21:49:00,
2013-10-09 17:54:00,71.3,68.1,29.98,West,274,3.0,7.0,90,0.00,,,0.01,Weather View 32 v70,2013-10-09 21:54:00,
2013-10-09 17:59:00,71.4,68.4,29.98,NE,42,1.0,7.0,90,0.00,,,0.01,Weather View 32 v70,2013-10-09 21:59:00,
2013-10-09 18:04:00,71.3,68.3,29.98,NNE,32,0.0,8.0,90,0.00,,,0.01,Weather View 32 v70,2013-10-09 22:04:00,
2013-10-09 18:09:00,71.1,68.1,29.98,WNW,293,0.0,8.0,90,0.00,,,0.01,Weather View 32 v70,2013-10-09 22:09:00,
2013-10-09 18:14:00,71.1,68.3,29.98,North,356,0.0,8.0,91,0.00,,,0.01,Weather View 32 v70,2013-10-09 22:14:00,
2013-10-09 18:19:00,71.0,68.2,29.98,North,349,0.0,8.0,91,0.00,,,0.01,Weather View 32 v70,2013-10-09 22:19:00,
2013-10-09 18:24:00,70.7,67.9,29.99,North,4,1.0,8.0,91,0.00,,,0.01,Weather View 32 v70,2013-10-09 22:24:00,
2013-10-09 18:29:00,70.9,68.2,29.98,North,350,0.0,8.0,91,0.00,,,0.01,Weather View 32 v70,2013-10-09 22:29:00,
2013-10-09 18:34:00,70.7,68.0,29.99,WNW,293,3.0,8.0,91,0.00,,,0.01,Weather View 32 v70,2013-10-09 22:34:00,
2013-10-09 18:39:00,70.6,67.8,29.99,WNW,285,0.0,8.0,91,0.00,,,0.01,Weather View 32 v70,2013-10-09 22:39:00,
2013-10-09 18:44:00,70.7,68.1,29.99,NNW,336,0.0,8.0,92,0.00,,,0.01,Weather View 32 v70,2013-10-09 22:44:00,
2013-10-09 18:49:00,70.5,67.9,29.99,North,6,0.0,8.0,92,0.00,,,0.01,Weather View 32 v70,2013-10-09 22:49:00,
2013-10-09 18:54:00,70.5,67.9,29.99,North,354,1.0,8.0,92,0.00,,,0.01,Weather View 32 v70,2013-10-09 22:54:00,
2013-10-09 18:59:00,70.5,68.0,29.99,NW,314,0.0,8.0,92,0.00,,,0.01,Weather View 32 v70,2013-10-09 22:59:00,
2013-10-09 19:04:00,70.3,67.7,29.99,West,262,0.0,6.0,92,0.00,,,0.01,Weather View 32 v70,2013-10-09 23:04:00,
2013-10-09 19:10:00,70.0,67.5,29.99,West,267,0.0,6.0,92,0.00,,,0.01,Weather View 32 v70,2013-10-09 23:10:00,
2013-10-09 19:15:00,70.2,67.8,29.99,NNW,333,0.0,6.0,92,0.00,,,0.01,Weather View 32 v70,2013-10-09 23:15:00,
2013-10-09 19:20:00,70.0,67.7,29.99,NE,48,2.0,6.0,92,0.00,,,0.01,Weather View 32 v70,2013-10-09 23:20:00,
2013-10-09 19:25:00,70.1,67.8,29.99,NNW,328,0.0,6.0,93,0.00,,,0.01,Weather View 32 v70,2013-10-09 23:25:00,
2013-10-09 19:30:00,70.0,67.7,29.99,West,263,1.0,6.0,93,0.00,,,0.01,Weather View 32 v70,2013-10-09 23:30:00,
2013-10-09 19:35:00,70.0,67.7,29.99,NW,307,3.0,6.0,93,0.00,,,0.01,Weather View 32 v70,2013-10-09 23:35:00,
2013-10-09 19:40:00,69.9,67.6,29.99,West,269,0.0,5.0,93,0.00,,,0.01,Weather View 32 v70,2013-10-09 23:40:00,
2013-10-09 19:45:00,69.8,67.6,29.99,West,264,1.0,5.0,93,0.00,,,0.01,Weather View 32 v70,2013-10-09 23:45:00,
2013-10-09 19:50:00,69.6,67.4,29.99,North,6,0.0,5.0,93,0.00,,,0.01,Weather View 32 v70,2013-10-09 23:50:00,
2013-10-09 19:55:00,69.7,67.6,29.99,West,270,0.0,5.0,93,0.00,,,0.01,Weather View 32 v70,2013-10-09 23:55:00,
2013-10-09 20:00:00,69.5,67.3,29.99,NNE,14,0.0,5.0,93,0.00,,,0.01,Weather View 32 v70,2013-10-10 00:00:00,
2013-10-09 20:05:00,69.7,67.6,29.99,West,267,2.0,5.0,93,0.00,,,0.01,Weather View 32 v70,2013-10-10 00:05:00,
2013-10-09 20:10:00,69.6,67.5,29.99,WSW,238,0.0,5.0,93,0.00,,,0.01,Weather View 32 v70,2013-10-10 00:10:00,
2013-10-09 20:15:00,69.5,67.4,29.99,WSW,242,0.0,5.0,93,0.00,,,0.01,Weather View 32 v70,2013-10-10 00:15:00,
2013-10-09 20:20:00,69.5,67.5,30.00,WSW,242,0.0,4.0,93,0.00,,,0.01,Weather View 32 v70,2013-10-10 00:20:00,
2013-10-09 20:25:00,69.6,67.6,30.00,WSW,242,0.0,4.0,94,0.00,,,0.01,Weather View 32 v70,2013-10-10 00:25:00,
2013-10-09 20:30:00,69.5,67.6,30.00,NNW,329,0.0,4.0,94,0.00,,,0.01,Weather View 32 v70,2013-10-10 00:30:00,
2013-10-09 20:35:00,69.6,67.8,30.00,West,267,0.0,4.0,94,0.00,,,0.01,Weather View 32 v70,2013-10-10 00:35:00,
2013-10-09 20:40:00,69.4,67.6,30.00,NNW,329,2.0,4.0,94,0.00,,,0.01,Weather View 32 v70,2013-10-10 00:40:00,
2013-10-09 20:45:00,69.7,68.0,30.00,WSW,246,0.0,4.0,94,0.00,,,0.01,Weather View 32 v70,2013-10-10 00:45:00,
2013-10-09 20:51:00,69.6,67.9,30.00,SW,236,0.0,4.0,94,0.00,,,0.01,Weather View 32 v70,2013-10-10 00:51:00,
2013-10-09 20:56:00,69.6,68.0,30.00,SW,236,0.0,4.0,95,0.00,,,0.01,Weather View 32 v70,2013-10-10 00:56:00,
2013-10-09 21:01:00,69.6,68.0,30.00,West,274,1.0,4.0,95,0.00,,,0.01,Weather View 32 v70,2013-10-10 01:01:00,
2013-10-09 21:06:00,69.5,67.9,30.00,WSW,256,0.0,4.0,95,0.00,,,0.01,Weather View 32 v70,2013-10-10 01:06:00,
2013-10-09 21:11:00,69.6,68.1,30.00,West,276,0.0,4.0,95,0.00,,,0.01,Weather View 32 v70,2013-10-10 01:11:00,
2013-10-09 21:16:00,69.5,67.9,30.01,NNW,329,3.0,4.0,95,0.00,,,0.01,Weather View 32 v70,2013-10-10 01:16:00,
2013-10-09 21:21:00,69.5,68.0,30.01,NNW,330,0.0,4.0,95,0.00,,,0.01,Weather View 32 v70,2013-10-10 01:21:00,
2013-10-09 21:26:00,69.6,68.1,30.01,WNW,300,0.0,4.0,95,0.00,,,0.01,Weather View 32 v70,2013-10-10 01:26:00,
2013-10-09 21:31:00,69.6,68.1,30.01,WNW,290,0.0,4.0,95,0.00,,,0.01,Weather View 32 v70,2013-10-10 01:31:00,
2013-10-09 21:36:00,69.6,68.1,30.01,NNW,328,0.0,4.0,95,0.00,,,0.01,Weather View 32 v70,2013-10-10 01:36:00,
2013-10-09 21:41:00,69.4,67.9,30.01,NNW,328,0.0,4.0,95,0.00,,,0.01,Weather View 32 v70,2013-10-10 01:41:00,
2013-10-09 21:46:00,69.5,68.0,30.01,NNW,328,0.0,3.0,95,0.00,,,0.01,Weather View 32 v70,2013-10-10 01:46:00,
2013-10-09 21:51:00,69.6,68.2,30.01,West,259,2.0,3.0,95,0.00,,,0.01,Weather View 32 v70,2013-10-10 01:51:00,
2013-10-09 21:56:00,69.7,68.3,30.01,SW,215,0.0,3.0,95,0.00,,,0.01,Weather View 32 v70,2013-10-10 01:56:00,
2013-10-09 22:01:00,69.7,68.3,30.02,SW,215,0.0,3.0,95,0.00,,,0.01,Weather View 32 v70,2013-10-10 02:01:00,
2013-10-09 22:06:00,69.6,68.2,30.01,SW,215,0.0,3.0,95,0.00,,,0.01,Weather View 32 v70,2013-10-10 02:06:00,
2013-10-09 22:11:00,69.7,68.3,30.02,SW,215,0.0,3.0,95,0.00,,,0.01,Weather View 32 v70,2013-10-10 02:11:00,
2013-10-09 22:16:00,69.6,68.2,30.02,SW,215,0.0,3.0,95,0.00,,,0.01,Weather View 32 v70,2013-10-10 02:16:00,
2013-10-09 22:21:00,69.6,68.2,30.02,SW,215,0.0,3.0,95,0.00,,,0.01,Weather View 32 v70,2013-10-10 02:21:00,
2013-10-09 22:26:00,69.5,68.1,30.02,SW,215,0.0,3.0,95,0.02,,,0.01,Weather View 32 v70,2013-10-10 02:26:00,
2013-10-09 22:31:00,69.6,68.2,30.02,NW,309,0.0,4.0,95,0.00,,,0.01,Weather View 32 v70,2013-10-10 02:31:00,
2013-10-09 22:36:00,69.7,68.3,30.02,NW,309,0.0,4.0,95,0.00,,,0.01,Weather View 32 v70,2013-10-10 02:36:00,
2013-10-09 22:41:00,69.6,68.2,30.02,West,263,0.0,4.0,95,0.00,,,0.01,Weather View 32 v70,2013-10-10 02:41:00,
2013-10-09 22:46:00,69.6,68.2,30.01,West,263,0.0,4.0,95,0.00,,,0.01,Weather View 32 v70,2013-10-10 02:46:00,
2013-10-09 22:51:00,69.5,68.1,30.02,West,263,0.0,4.0,95,0.00,,,0.01,Weather View 32 v70,2013-10-10 02:51:00,
2013-10-09 22:56:00,69.4,68.0,30.02,WNW,285,0.0,4.0,95,0.00,,,0.01,Weather View 32 v70,2013-10-10 02:56:00,
2013-10-09 23:01:00,69.5,68.2,30.01,WNW,285,0.0,4.0,96,0.00,,,0.01,Weather View 32 v70,2013-10-10 03:01:00,
2013-10-09 23:06:00,69.3,68.0,30.01,WNW,285,0.0,4.0,96,0.00,,,0.01,Weather View 32 v70,2013-10-10 03:06:00,
2013-10-09 23:11:00,69.3,68.0,30.01,West,264,0.0,4.0,96,0.00,,,0.01,Weather View 32 v70,2013-10-10 03:11:00,
2013-10-09 23:16:00,69.2,67.9,30.01,West,264,0.0,4.0,96,0.00,,,0.01,Weather View 32 v70,2013-10-10 03:16:00,
2013-10-09 23:21:00,69.2,67.9,30.01,ENE,76,0.0,4.0,96,0.00,,,0.01,Weather View 32 v70,2013-10-10 03:21:00,
2013-10-09 23:26:00,68.9,67.7,30.01,NW,323,2.0,4.0,96,0.00,,,0.01,Weather View 32 v70,2013-10-10 03:26:00,
2013-10-09 23:31:00,69.0,67.8,30.01,NW,319,3.0,4.0,96,0.00,,,0.01,Weather View 32 v70,2013-10-10 03:31:00,
2013-10-09 23:36:00,68.9,67.7,30.01,NNE,15,0.0,4.0,96,0.00,,,0.01,Weather View 32 v70,2013-10-10 03:36:00,
2013-10-09 23:41:00,68.7,67.5,30.01,NNE,15,0.0,4.0,96,0.00,,,0.01,Weather View 32 v70,2013-10-10 03:41:00,
2013-10-09 23:46:00,68.8,67.7,30.01,NW,304,0.0,4.0,96,0.00,,,0.01,Weather View 32 v70,2013-10-10 03:46:00,
2013-10-09 23:51:00,68.6,67.5,30.01,South,174,0.0,4.0,96,0.00,,,0.01,Weather View 32 v70,2013-10-10 03:51:00,
2013-10-09 23:56:00,68.8,67.7,30.01,SSW,197,0.0,4.0,96,0.00,,,0.01,Weather View 32 v70,2013-10-10 03:56:00,